Location: Baix
(44.7118°N, 4.7648°E)
Time: 13:46:19
(UTC+00:00)

Explorer 11/Cluster Stage 4 - Pass Details

Date: 27 November 2020
Orbit: 467 x 1258 km, 28.8° (Epoch: 14 January)

Event Time Altitude Azimuth Distance (km) Brightness Sun altitude
Rises 23:21:51 0° 235° (SW) 3,410 - -66.6°
Reaches altitude 10° 23:26:06 10° 209° (SSW) 2,262 - -66.6°
Maximum altitude 23:28:17 13° 184° (S) 1,982 - -66.6°
Drops below altitude 10° 23:30:19 10° 159° (SSE) 2,055 - -66.6°
Sets 23:33:46 0° 129° (SE) 2,800 - -66.6°
